[[{"header":{"parameterUnit":"m.s-1","parameterCategory":1,"la1":30.2991,"la2":30.254,"lo1":-89.0895,"lo2":-89.0444,"dy":0.0017,"dx":0.0017,"nx":28,"ny":28,"refTime":"2025-04-20T21:00:00:Z","depth":0,"parameterNumber":2,"parameterNumberName":"U-component_of_WINDS"},"data":[0,0,0,0,0,0,0,0,0,0,0,0,0,0,0,0,0,0,0,0,0,0,0,0,0,0,0,0,0,0,0,0,0,0,0,0,0,0,0,0,0,0,0,0,0,0,0,0,0,0,0,0,0,0,0,0,0,0,-1.4418,-1.4419,0,-1.4457,-1.4458,-1.4458,-1.4523,-1.4524,-1.4525,-1.4526,-1.4564,-1.4564,-1.4564,0,0,0,0,0,0,0,0,0,0,0,0,0,-1.4398,-1.4398,-1.4418,-1.4419,-1.4419,-1.4457,-1.4458,-1.4458,-1.4523,-1.4524,-1.4526,-1.4527,-1.4564,-1.4564,-1.4564,0,0,0,0,0,0,0,0,0,0,0,0,0,-1.4418,-1.4398,-1.4418,-1.4456,-1.446,-1.4457,-1.4458,-1.4458,-1.4522,-1.4524,-1.4526,-1.4528,-1.4564,-1.4564,-1.4564,-1.4526,0,0,-1.4563,-1.4563,0,0,0,0,0,0,0,0,-1.4417,-1.4419,-1.445,-1.4453,-1.4458,-1.4487,-1.4464,-1.4481,-1.4522,-1.4498,-1.4526,-1.4528,-1.4537,-1.4539,-1.4542,-1.4528,-1.453,-1.4563,-1.4563,-1.4563,-1.4563,0,0,0,0,0,0,0,-1.4416,-1.4418,-1.4433,-1.445,-1.4455,-1.447,-1.4475,-1.4468,-1.4507,-1.4501,-1.4505,-1.4509,-1.4539,-1.4542,-1.4543,-1.453,-1.4563,-1.4563,-1.4563,-1.4563,-1.4488,-1.4486,0,0,0,0,0,0,-1.4409,-1.4416,-1.4432,-1.4435,-1.4441,-1.4469,-1.4475,-1.4476,-1.4507,-1.4514,-1.4508,-1.4512,-1.4542,-1.4544,-1.4545,-1.4504,-1.4563,-1.4563,-1.4563,-1.449,-1.4487,-1.4485,0,0,0,0,0,0,-1.4408,-1.441,-1.4431,-1.4427,-1.4431,-1.4468,-1.4468,-1.4475,-1.4479,-1.4513,-1.452,-1.4504,-1.4543,-1.4545,-1.4531,-1.4506,-1.4563,-1.4562,-1.4492,-1.4489,-1.4486,-1.442,0,0,0,0,0,0,-1.4407,-1.4409,-1.4396,-1.4426,-1.4431,-1.4416,-1.4467,-1.4475,-1.4478,-1.4485,-1.4511,-1.4517,-1.4545,-1.4531,-1.4531,-1.4506,-1.4562,-1.4494,-1.4491,-1.4487,-1.4424,-1.4415,-1.4407,0,0,0,0,0,-1.4406,-1.4375,-1.4395,-1.4396,-1.4415,-1.4414,-1.4417,-1.445,-1.4476,-1.4463,-1.4485,-1.4516,-1.4509,-1.4529,-1.4529,-1.4504,-1.4496,-1.4492,-1.4487,-1.4428,-1.4417,-1.4407,0,0,0,0,0,0,-1.434,-1.4379,-1.4402,-1.4379,-1.4393,-1.4425,-1.4409,-1.4437,-1.4443,-1.4449,-1.449,-1.4495,-1.4475,-1.4489,-1.451,-1.447,-1.4507,-1.4503,-1.4462,-1.4451,-1.4443,-1.444,-1.4562,0,0,0,0,0,-1.4322,-1.432,-1.4354,-1.4331,-1.4337,-1.4372,-1.4373,-1.4398,-1.4413,-1.4419,-1.444,-1.4453,-1.4454,-1.4454,-1.4456,-1.4427,-1.4433,-1.441,-1.4402,-1.4394,-1.439,-1.4375,-1.4365,-1.4471,-1.4471,-1.4472,0,0,-1.4287,-1.4308,-1.4304,-1.4318,-1.4332,-1.4327,-1.4376,-1.4369,-1.4366,-1.4418,-1.4406,-1.4421,-1.4439,-1.4417,-1.4408,-1.4427,-1.4362,-1.4389,-1.4383,-1.4382,-1.437,-1.436,-1.4351,-1.4469,-1.4469,-1.447,0,0,-1.4219,-1.4235,-1.4218,-1.423,-1.4251,-1.4274,-1.427,-1.4298,-1.4311,-1.4299,-1.4338,-1.4334,-1.4335,-1.4346,-1.4352,-1.4289,-1.4317,-1.4288,-1.4243,-1.4228,-1.422,-1.4212,-1.419,-1.4181,-1.4284,-1.4284,-1.4284,0,-1.4172,-1.4167,-1.4205,-1.4196,-1.4201,-1.4248,-1.423,-1.4241,-1.426,-1.4262,-1.4284,-1.4286,-1.4301,-1.4282,-1.4267,-1.427,-1.4266,-1.4285,-1.4218,-1.4211,-1.4205,-1.4184,-1.4175,-1.428,-1.428,-1.4281,-1.4281,0,-1.4108,-1.4104,-1.4087,-1.4106,-1.4109,-1.4096,-1.4131,-1.4129,-1.4154,-1.4175,-1.4162,-1.4182,-1.419,-1.4187,-1.4211,-1.4172,-1.4183,-1.4211,-1.4249,-1.419,-1.4171,-1.4163,-1.4275,-1.4276,-1.4277,-1.4278,0,0,-1.3999,-1.4039,-1.4032,-1.4041,-1.4067,-1.4065,-1.4053,-1.4061,-1.4059,-1.4071,-1.4062,-1.4062,-1.4088,-1.4094,-1.4119,-1.4107,-1.4055,-1.4136,-1.4137,-1.412,-1.4013,-1.3991,-1.3981,-1.4075,-1.4073,-1.4072,-1.4011,0,-1.3937,-1.392,-1.3954,-1.3928,-1.3925,-1.397,-1.396,-1.3975,-1.3994,-1.3994,-1.4015,-1.4014,-1.4048,-1.4053,-1.4042,-1.4063,-1.4034,-1.4068,-1.4066,-1.4066,-1.406,-1.3971,-1.3949,-1.389,-1.4004,-1.4003,-1.4002,0,-1.3862,-1.3871,-1.3845,-1.3873,-1.3873,-1.3863,-1.3874,-1.3873,-1.389,-1.3905,-1.3912,-1.3942,-1.3932,-1.3969,-1.3956,-1.3978,-1.398,-1.399,-1.3989,-1.3989,-1.403,-1.3969,-1.3873,-1.3863,-1.399,-1.3991,-1.3992,0,-1.3785,-1.379,-1.3776,-1.3783,-1.3814,-1.3806,-1.3819,-1.3838,-1.3841,-1.385,-1.3852,-1.3859,-1.3863,-1.3867,-1.3898,-1.3922,-1.3881,-1.392,-1.3892,-1.3892,-1.3881,-1.3881,-1.3783,-1.3882,-1.3883,-1.3883,-1.3883,0,-1.3712,-1.3695,-1.3742,-1.3733,-1.3715,-1.3753,-1.3734,-1.3751,-1.3768,-1.3763,-1.3802,-1.3796,-1.3838,-1.3836,-1.386,-1.3845,-1.3847,-1.3858,-1.3865,-1.3854,-1.3853,-1.3855,-1.386,-1.388,-1.3881,-1.3881,-1.3882,0,-1.3623,-1.3654,-1.3642,-1.3673,-1.368,-1.3665,-1.3692,-1.3684,-1.3706,-1.3699,-1.37,-1.3734,-1.3734,-1.3766,-1.3772,-1.3789,-1.3763,-1.3777,-1.3758,-1.3762,-1.3732,-1.3734,-1.3632,-1.362,-1.3727,-1.3726,-1.3725,0,-1.3574,-1.3562,-1.3592,-1.3592,-1.3603,-1.3602,-1.3605,-1.3642,-1.3643,-1.3662,-1.3652,-1.3656,-1.3661,-1.3659,-1.3684,-1.3689,-1.3704,-1.3667,-1.3705,-1.3695,-1.3703,-1.3703,-1.3702,-1.3659,-1.3658,-1.3657,-1.3656,0,-1.3485,-1.3501,-1.3504,-1.3513,-1.3515,-1.3524,-1.3535,-1.3532,-1.3572,-1.3572,-1.3573,-1.3577,-1.3584,-1.3587,-1.3596,-1.3609,-1.3639,-1.3644,-1.3638,-1.3627,-1.3616,-1.3621,-1.3736,-1.3646,-1.3647,-1.3648,-1.3648,-1.3649,-1.3415,-1.3406,-1.3426,-1.3428,-1.344,-1.3449,-1.3444,-1.3465,-1.3467,-1.3476,-1.3497,-1.3495,-1.3512,-1.3528,-1.3538,-1.3536,-1.3555,-1.3546,-1.3543,-1.3541,-1.3535,-1.3616,-1.3538,-1.3539,-1.3539,-1.3539,-1.354,0,-1.3328,-1.3343,-1.3344,-1.3358,-1.336,-1.3388,-1.3401,-1.34,-1.3398,-1.3412,-1.3416,-1.3416,-1.3419,-1.3445,-1.345,-1.3444,-1.3458,-1.3444,-1.3445,-1.3447,-1.3518,-1.3523,-1.3433,-1.3433,-1.3433,-1.3433,-1.3433,-1.3433,-1.3283,-1.3269,-1.3287,-1.328,-1.3295,-1.3293,-1.3298,-1.3306,-1.3318,-1.3317,-1.332,-1.3336,-1.3354,-1.3362,-1.3365,-1.3373,-1.3373,-1.3355,-1.3366,-1.3432,-1.3442,-1.3452,-1.3457,-1.3354,-1.3354,-1.3296,-1.3295,-1.3295]},{"header":{"parameterUnit":"m.s-1","parameterCategory":1,"la1":30.2991,"la2":30.254,"lo1":-89.0895,"lo2":-89.0444,"dy":0.0017,"dx":0.0017,"nx":28,"ny":28,"refTime":"2025-04-20T21:00:00:Z","depth":0,"parameterNumber":3,"parameterNumberName":"V-component_of_WINDS"},"data":[0,0,0,0,0,0,0,0,0,0,0,0,0,0,0,0,0,0,0,0,0,0,0,0,0,0,0,0,0,0,0,0,0,0,0,0,0,0,0,0,0,0,0,0,0,0,0,0,0,0,0,0,0,0,0,0,0,0,4.9008,4.9006,0,4.8886,4.8885,4.8884,4.8675,4.8671,4.8668,4.8664,4.8542,4.8543,4.8543,0,0,0,0,0,0,0,0,0,0,0,0,0,4.9063,4.9064,4.9008,4.9006,4.9005,4.8887,4.8885,4.8883,4.8676,4.8671,4.8667,4.8662,4.8542,4.8543,4.8543,0,0,0,0,0,0,0,0,0,0,0,0,0,4.9001,4.9064,4.9008,4.8887,4.8875,4.8887,4.8885,4.8883,4.8677,4.8671,4.8665,4.866,4.8542,4.8543,4.8543,4.8664,0,0,4.8545,4.8545,0,0,0,0,0,0,0,0,4.9005,4.8999,4.8906,4.8895,4.8882,4.879,4.886,4.881,4.8679,4.8752,4.8664,4.8657,4.863,4.8623,4.8613,4.8659,4.8653,4.8545,4.8546,4.8546,4.8546,0,0,0,0,0,0,0,4.9009,4.9003,4.896,4.8905,4.889,4.884,4.8825,4.8849,4.8726,4.8745,4.873,4.8718,4.8622,4.8613,4.8609,4.8652,4.8545,4.8546,4.8546,4.8546,4.8791,4.8797,0,0,0,0,0,0,4.9031,4.9008,4.8963,4.8956,4.893,4.8844,4.8826,4.8825,4.8725,4.8703,4.8724,4.8709,4.8615,4.8608,4.8604,4.8738,4.8546,4.8546,4.8547,4.8785,4.8793,4.8799,0,0,0,0,0,0,4.9033,4.9029,4.8968,4.8978,4.8966,4.8849,4.885,4.8826,4.8817,4.8708,4.8685,4.8737,4.861,4.8603,4.8651,4.8731,4.8547,4.8547,4.8778,4.8787,4.8796,4.901,0,0,0,0,0,0,4.9035,4.9031,4.9075,4.898,4.8966,4.9017,4.8854,4.8828,4.8818,4.8798,4.8714,4.8695,4.8605,4.8651,4.8651,4.8729,4.8548,4.877,4.8782,4.8793,4.8995,4.9025,4.9051,0,0,0,0,0,4.9038,4.914,4.9078,4.9074,4.9019,4.9022,4.9014,4.8908,4.8825,4.8869,4.8799,4.8697,4.8723,4.8658,4.8656,4.8735,4.8764,4.8779,4.8792,4.8982,4.9019,4.905,0,0,0,0,0,0,4.9247,4.9125,4.9055,4.9129,4.9088,4.8987,4.9038,4.895,4.8931,4.8914,4.8783,4.8766,4.8831,4.8788,4.8717,4.8847,4.8728,4.8742,4.8873,4.8907,4.8934,4.8943,4.8548,0,0,0,0,0,4.9302,4.9314,4.9207,4.9283,4.9266,4.9157,4.9154,4.9076,4.9028,4.9009,4.8943,4.8901,4.8899,4.8901,4.8893,4.8988,4.8967,4.9042,4.907,4.9093,4.9107,4.9154,4.9186,4.8845,4.8844,4.8844,0,0,4.9416,4.935,4.9366,4.9324,4.9282,4.9299,4.9143,4.9167,4.9178,4.9013,4.9054,4.9005,4.8949,4.9022,4.905,4.8987,4.9197,4.9111,4.9131,4.9131,4.9172,4.9204,4.9233,4.8854,4.8852,4.8851,0,0,4.963,4.9582,4.964,4.9602,4.9541,4.9468,4.9482,4.9395,4.9356,4.9395,4.9271,4.9284,4.9284,4.9249,4.9232,4.9436,4.9342,4.9438,4.9583,4.9631,4.9658,4.9681,4.9754,4.9782,4.9452,4.9452,4.9453,0,4.9778,4.9797,4.9681,4.9713,4.9698,4.955,4.9608,4.9577,4.9518,4.9512,4.9443,4.944,4.9392,4.9454,4.9504,4.9495,4.9508,4.9446,4.9663,4.9686,4.9706,4.9773,4.9801,4.9464,4.9463,4.9462,4.946,0,4.9983,4.9998,5.0053,4.9998,4.999,5.0035,4.9928,4.9934,4.9857,4.9792,4.9835,4.9773,4.975,4.9759,4.9685,4.9812,4.9775,4.9687,4.9564,4.9752,4.9814,4.9839,4.9481,4.9477,4.9473,4.9471,0,0,5.0323,5.0205,5.0227,5.0201,5.0124,5.0134,5.0174,5.0151,5.0159,5.0124,5.0154,5.0158,5.0077,5.0057,4.9978,5.002,5.0186,4.9926,4.9923,4.9977,5.0323,5.0389,5.0421,5.0124,5.0129,5.0132,5.0327,0,5.052,5.0579,5.0478,5.0561,5.0574,5.0435,5.0469,5.0427,5.0368,5.0371,5.0306,5.0311,5.0203,5.019,5.0226,5.0159,5.0254,5.0143,5.0151,5.0153,5.0168,5.0453,5.0522,5.0709,5.0351,5.0355,5.0357,0,5.0757,5.0734,5.0819,5.0737,5.0739,5.0772,5.0743,5.0749,5.0698,5.0652,5.0633,5.0539,5.0573,5.0456,5.0502,5.0429,5.0427,5.0395,5.0399,5.0395,5.0266,5.0455,5.0766,5.0794,5.0394,5.0391,5.0389,0,5.0997,5.0986,5.1035,5.1018,5.0924,5.0951,5.0914,5.0857,5.0851,5.0827,5.0821,5.0803,5.0793,5.0781,5.0685,5.0609,5.0743,5.0618,5.0706,5.0709,5.0739,5.0738,5.1053,5.0741,5.074,5.074,5.0739,0,5.1226,5.1284,5.1141,5.1172,5.1233,5.1116,5.118,5.1129,5.1081,5.1099,5.0979,5.0999,5.0872,5.0879,5.0805,5.0855,5.0851,5.0816,5.0795,5.0826,5.083,5.0821,5.0805,5.0747,5.0745,5.0744,5.0743,0,5.1503,5.141,5.1454,5.1363,5.1341,5.139,5.1312,5.1337,5.1272,5.1297,5.1297,5.1194,5.1196,5.11,5.1084,5.1034,5.1115,5.1072,5.1132,5.1118,5.1212,5.1204,5.153,5.1567,5.1233,5.1237,5.124,0,5.1654,5.1695,5.1609,5.1612,5.1581,5.1589,5.1581,5.147,5.1467,5.1414,5.1447,5.1439,5.1427,5.1438,5.1362,5.1349,5.1304,5.1419,5.1301,5.1331,5.1304,5.1303,5.1306,5.1444,5.1448,5.1451,5.1454,0,5.1934,5.1886,5.188,5.1859,5.1854,5.1832,5.1802,5.1813,5.1691,5.1695,5.1696,5.1687,5.167,5.1664,5.1638,5.16,5.1508,5.1493,5.1512,5.1543,5.1576,5.1559,5.1199,5.1485,5.1482,5.148,5.1478,5.1477,5.2151,5.2181,5.2125,5.2123,5.2089,5.2065,5.2084,5.2021,5.202,5.1997,5.1932,5.1944,5.1894,5.1849,5.182,5.1828,5.1771,5.18,5.1807,5.1815,5.1833,5.1577,5.1823,5.1822,5.1821,5.1821,5.182,0,5.2423,5.2381,5.238,5.2342,5.2342,5.2255,5.2219,5.2224,5.2236,5.2197,5.2188,5.219,5.2185,5.211,5.2096,5.2118,5.2075,5.2118,5.2114,5.2107,5.1885,5.1869,5.2152,5.2152,5.2152,5.2152,5.2152,5.2152,5.2564,5.261,5.2557,5.2587,5.2544,5.2554,5.2541,5.2519,5.2487,5.2495,5.2489,5.2441,5.2388,5.237,5.2362,5.234,5.234,5.2397,5.2361,5.2155,5.2123,5.2092,5.2076,5.2398,5.2399,5.2582,5.2583,5.2585]}]]